Location: Peterborough
(44.3091°N, 78.3197°W)
Time: 09:14:49
(UTC-04:00)

Vanguard 1 - Visible Passes

Search period start: 18 May 2026 00:00
Search period end: 28 May 2026 00:00
Orbit: 654 x 3817 km, 34.2° (Epoch: 18 May)

Date Brightness Start Highest point End Pass type
(mag) Time Alt. Az. Time Alt. Az. Time Alt. Az.
18 May 12.7 21:18:18 10° W 21:29:33 40° SSW 21:46:48 11° SE visible
18 May 13.5 23:41:51 10° WSW 23:52:39 20° SW 23:59:20 17° SSW visible
19 May 12.9 21:37:51 10° W 21:48:55 34° SSW 22:04:33 12° SSE visible
20 May 13.7 00:03:47 10° WSW 00:11:53 15° SW 00:17:05 13° SSW visible
20 May 13.1 21:57:37 10° W 22:08:16 29° SSW 22:22:21 12° SSE visible
21 May 13.3 22:17:46 10° WSW 22:27:37 23° SSW 22:40:13 11° S visible
22 May 13.5 22:38:37 10° WSW 22:46:57 17° SW 22:57:39 10° S visible
23 May 13.7 23:01:19 10° SW 23:06:17 12° SW 23:11:58 10° SSW visible
24 May 13.0 20:54:52 10° WSW 21:03:09 24° SSW 21:15:25 10° SSE visible
25 May 13.2 21:15:10 10° WSW 21:22:31 19° SSW 21:32:36 10° S visible
26 May 13.5 21:36:31 10° WSW 21:41:54 14° SSW 21:48:29 10° S visible
